Weather Roundup
Issued by NWS Corpus Christi, TX

Home | Current Version | Previous Version | Text Only | Print | Product List | Glossary On
Versions: 1 2 3 4 5 6 7 8 9 10 11 12 13 14 15 16 17 18 19 20 21 22 23 24 25 26 27 28 29 30 31 32 33 34 35 36 37 38 39 40 41 42 43 44 45 46 47 48 49 50
000
ASUS44 KCRP 061910
HRRCRP

SOUTH TEXAS REGIONAL WEATHER ROUNDUP
NATIONAL WEATHER SERVICE CORPUS CHRISTI TX
100 PM CST SAT FEB 06 2016


TXZ229>244-062000-
...CORPUS CHRISTI AREA OBSERVATIONS...

CITY           SKY/WX    TMP DP  RH WIND       PRES   REMARKS
CORPUS CHRISTI SUNNY     68  25  19 NW21G32   30.37F
NAS CORPUS CHR SUNNY     67  34  29 NW18      30.36F
ROCKPORT       SUNNY     68  30  24 NW18G26   30.35F
KINGSVILLE NAS SUNNY     68  26  20 NW24      30.38F
ALICE          SUNNY     67  21  17 NW18G25   30.38F
FALFURRIAS     SUNNY     67  16  14 W16G23    30.39F
$$

...VICTORIA AREA OBSERVATIONS...

CITY           SKY/WX    TMP DP  RH WIND       PRES   REMARKS
VICTORIA       SUNNY     63  29  27 NW21G29   30.34F
BEEVILLE       FAIR      65  29  25 NW17G25   30.37F
PLEASANTON     SUNNY     62  22  22 NW15G26   30.40F
SAN ANTONIO    SUNNY     61  21  21 NW18G25   30.38F
$$

...LAREDO AREA OBSERVATIONS...

CITY           SKY/WX    TMP DP  RH WIND       PRES   REMARKS
LAREDO         SUNNY     65  21  18 NW16G22   30.44F
COTULLA        SUNNY     65  18  16 NW14G28   30.42F
DEL RIO        SUNNY     60  21  22 W9        30.43F
MCALLEN        SUNNY     73  23  15 NW16G24   30.40F
HEBBRONVILLE   NOT AVBL
$$

...OTHER TEXAS OBSERVATIONS...

CITY           SKY/WX    TMP DP  RH WIND       PRES   REMARKS
BROWNSVILLE    SUNNY     71  34  25 NW18G37   30.37F
HOUSTON        MOSUNNY   57  32  38 NW13G23   30.28F
COL. STATION   SUNNY     54  36  50 NW16G30   30.32F
AUSTIN         MOSUNNY   59  25  27 N22G29    30.34F
WACO           PTSUNNY   51  35  54 N22G29    30.38R
FORT WORTH     PTSUNNY   48  36  63 N10       30.39S
WICHITA FALLS  SUNNY     50  29  44 NW8       30.40F
LUBBOCK        MOSUNNY   50  16  25 S8        30.36F
EL PASO        MOSUNNY   50   6  16 VRB3      30.45F
$$

...MARINE OBSERVATIONS...

STATION/POSITION TIME  SKY/WX   TEMP    WIND        PRES    VSBY  WAVE   SWELL
                                AIR SEA DIR/SP/G                  HT/PER HT/PER
                 (UTC)          (F)     (DEG/KT/KT) (MB)    (MI)  (FT/S) (FT/S)
PORT ARANSAS     1900            64 59  300/ 16/ 23 1028.4F
BUOY 90 E PORT A 1850            59 69  310/ 21/ 27 1025.8F         6/ 6
BUOY 45 SE BAFFI 1850            61 69  310/ 19/ 25 1027.5F         4/ 4   2/12
BUOY 200 E PT IS 1850                                 N/A           5/ 5   2/ 8
BUOY 15 E GALVES 1850            54 59  320/  6/ 10 1024.9F         2/ 6   2/ 6
$$



USA.gov is the U.S. government's official web portal to all federal, state and local government web resources and services.